Location: Newark
(40.9833°N, 0.0333°W)
Time: 23:13:46
(UTC+00:00)

Vanguard 2 Rocket - Pass Details

Date: 02 November 2020
Orbit: 554 x 3326 km, 32.9° (Epoch: 24 November)

Event Time Altitude Azimuth Distance (km) Brightness Sun altitude
Rises 17:55:42 0° 249° (WSW) 2,868 11.3 -12.0°
Reaches altitude 10° 17:58:17 10° 236° (SW) 1,855 9.6 -12.5°
Maximum altitude 18:01:40 27° 177° (S) 1,080 7.4 -13.2°
Enters shadow 18:04:31 13° 123° (ESE) 1,686 7.9 -13.7°
